DW9840 Weather Reports


time (UTC)temp
C
wind
direction
speed
KPH
gust
KPH
rain 1hr
cm
rain 24hr
cm
rain mn
cm
humidity
%
barometer
mb
20190524234610 18 187 4.8 12.9 0.00 0.00 0.00 72 1013.3
20190524233032 17 183 3.2 14.5 0.00 0.00 0.00 73 1013.4
20190524231541 18 208 6.4 14.5 0.00 0.00 0.00 72 1013.4
20190524230042 18 225 4.8 17.7 0.00 0.00 0.00 72 1013.4
20190524224528 18 233 8.0 20.9 0.00 0.00 0.00 70 1013.6
20190524223053 20 281 4.8 16.1 0.00 0.00 0.00 68 1013.6
20190524221558 20 294 4.8 17.7 0.00 0.00 0.00 69 1013.7
20190524220046 20 261 4.8 14.5 0.00 0.00 0.00 67 1013.9
20190524214534 21 298 6.4 12.9 0.00 0.00 0.00 66 1014.1
20190524213025 21 225 3.2 8.0 0.00 0.00 0.00 66 1014.2
20190524211529 20 278 1.6 9.7 0.00 0.00 0.00 66 1014.5
20190524210038 21 295 1.6 9.7 0.00 0.00 0.00 66 1014.5
20190524204520 20 274 4.8 9.7 0.00 0.00 0.00 66 1014.7
20190524203014 19 260 4.8 9.7 0.00 0.00 0.00 68 1015.0
20190524201504 19 233 4.8 14.5 0.00 0.00 0.00 69 1015.0
20190524200157 18 41 0.0 6.4 0.00 0.00 0.00 70 1015.1
20190524194712 17 207 0.0 4.8 0.00 0.00 0.00 72 1015.5
20190524193239 16 239 0.0 6.4 0.00 0.00 0.00 74 1015.5
20190524191649 16 149 0.0 3.2 0.00 0.00 0.00 74 1015.8
20190524190121 16 284 1.6 4.8 0.00 0.00 0.00 75 1016.1
20190524184646 15 323 0.0 3.2 0.00 0.00 0.00 76 1016.4
20190524183126 15 214 0.0 4.8 0.00 0.00 0.00 76 1016.4
20190524181616 15 281 0.0 3.2 0.00 0.00 0.00 76 1016.6
20190524180155 15 285 0.0 4.8 0.00 0.00 0.00 76 1016.6
20190524174604 15 283 0.0 4.8 0.00 0.00 0.00 75 1016.5
20190524173118 14 197 0.0 4.8 0.00 0.00 0.00 74 1016.3
20190524171613 14 232 1.6 6.4 0.00 0.00 0.00 74 1016.2
20190524170110 14 226 0.0 0.0 0.00 0.00 0.00 69 1016.2
20190524164606 14 215 0.0 0.0 0.00 0.00 0.00 67 1016.2
20190524163122 14 210 0.0 0.0 0.00 0.00 0.00 65 1016.1
20190524161620 13 221 0.0 0.0 0.00 0.00 0.00 63 1016.1
20190524160049 13 162 0.0 4.8 0.00 0.00 0.00 64 1016.0
20190524154617 13 248 0.0 0.0 0.00 0.00 0.00 63 1016.0
20190524153045 13 94 0.0 0.0 0.00 0.00 0.00 63 1015.7
20190524151542 13 214 0.0 0.0 0.00 0.00 0.00 58 1015.7
20190524150120 13 134 0.0 0.0 0.00 0.00 0.00 59 1015.6
20190524144533 13 236 0.0 0.0 0.00 0.00 0.00 56 1015.7
20190524143037 13 254 0.0 0.0 0.00 0.00 0.00 57 1015.6
20190524141542 -17 0.0 0.0 0.00 0.00 0.00 1015.5
20190524140013 -17 0.0 0.0 0.00 0.00 0.00 1015.6
20190524134517 -17 0.0 0.0 0.00 0.00 0.00 1015.5
20190524133133 -17 0.0 0.0 0.00 0.00 0.00 1015.4
20190524131649 -17 0.0 0.0 0.00 0.00 0.00 1015.3
20190524130107 -17 0.0 0.0 0.00 0.00 0.00 1015.3
20190524124649 -17 0.0 0.0 0.00 0.00 0.00 1015.2
20190524123124 -17 0.0 0.0 0.00 0.00 0.00 1014.9
20190524121614 -17 0.0 0.0 0.00 0.00 0.00 1015.0
20190524120131 -17 0.0 0.0 0.00 0.00 0.00 1015.0
20190524114543 -17 0.0 0.0 0.00 0.00 0.00 1015.0
20190524113108 13 276 0.0 3.2 0.00 0.00 0.00 52 1015.0
20190524111535 13 255 0.0 3.2 0.00 0.00 0.00 53 1015.1
20190524110046 13 221 0.0 0.0 0.00 0.00 0.00 52 1015.1
20190524104550 13 211 0.0 0.0 0.00 0.00 0.00 55 1015.0
20190524103139 13 212 0.0 0.0 0.00 0.00 0.00 54 1015.0
20190524101541 13 253 0.0 0.0 0.00 0.00 0.00 55 1015.1
20190524100033 13 269 0.0 1.6 0.00 0.00 0.00 52 1015.1
20190524094527 13 282 0.0 4.8 0.00 0.00 0.00 53 1015.0
20190524093055 13 273 1.6 6.4 0.00 0.00 0.00 52 1015.0
20190524091558 13 287 1.6 9.7 0.00 0.00 0.00 55 1014.9
20190524090037 13 239 0.0 4.8 0.00 0.00 0.00 52 1014.9
20190524084544 13 280 0.0 4.8 0.00 0.00 0.00 50 1014.9
20190524083040 13 264 1.6 4.8 0.00 0.00 0.00 47 1014.9
20190524081514 13 209 0.0 3.2 0.00 0.00 0.00 44 1014.7
20190524080011 13 282 0.0 3.2 0.00 0.00 0.00 43 1014.6
20190524074514 13 271 1.6 6.4 0.00 0.00 0.00 42 1014.7
20190524073005 13 239 0.0 6.4 0.00 0.00 0.00 41 1014.7
20190524071505 13 213 0.0 4.8 0.00 0.00 0.00 39 1014.6
20190524070004 13 281 0.0 6.4 0.00 0.00 0.00 39 1014.4
20190524064638 13 225 0.0 0.0 0.00 0.00 0.00 36 1014.3
20190524063206 13 256 0.0 4.8 0.00 0.00 0.00 32 1014.1
20190524061640 13 285 0.0 8.0 0.00 0.00 0.00 25 1013.9
20190524060135 13 238 3.2 8.0 0.00 0.00 0.00 21 1013.7
20190524054639 13 201 3.2 9.7 0.00 0.00 0.00 25 1013.5
20190524053159 13 214 3.2 8.0 0.00 0.00 0.00 34 1013.2
20190524051616 13 240 4.8 9.7 0.00 0.00 0.00 41 1013.0
20190524050120 13 211 6.4 14.5 0.00 0.00 0.00 48 1012.8
20190524044622 13 201 4.8 11.3 0.00 0.00 0.00 59 1012.4
20190524043052 13 232 4.8 11.3 0.00 0.00 0.00 68 1012.1
20190524041612 14 208 6.4 11.3 0.00 0.00 0.00 73 1011.9
20190524040128 15 246 4.8 11.3 0.00 0.00 0.00 75 1011.5
20190524034547 15 222 6.4 14.5 0.00 0.00 0.00 75 1011.1
20190524033052 16 252 4.8 14.5 0.00 0.00 0.00 75 1010.9
20190524031539 16 235 8.0 17.7 0.00 0.00 0.00 74 1010.6
20190524030043 16 236 8.0 16.1 0.00 0.00 0.00 73 1010.4
20190524024519 17 226 6.4 20.9 0.00 0.00 0.00 71 1010.1
20190524023052 18 198 8.0 16.1 0.00 0.00 0.00 69 1009.9
20190524021538 20 188 9.7 16.1 0.00 0.00 0.00 65 1009.7
20190524020025 21 164 8.0 16.1 0.00 0.00 0.00 62 1009.4
20190524014549 21 214 9.7 20.9 0.00 0.00 0.00 60 1009.3
20190524013018 22 225 6.4 14.5 0.00 0.00 0.00 53 1009.2
20190524011510 22 224 8.0 14.5 0.00 0.00 0.00 54 1009.1
20190524010032 22 216 8.0 19.3 0.00 0.00 0.00 57 1009.0
20190524004505 22 207 9.7 22.5 0.00 0.00 0.00 56 1008.7
20190524003001 21 211 11.3 20.9 0.00 0.00 0.00 55 1008.6
20190524001800 21 210 9.7 19.3 0.00 0.00 0.00 59 1008.6
20190524000155 22 208 9.7 19.3 0.00 0.00 0.00 59 1008.8